II Московский марафон, 21 сентября 2014

Серия забегов: ММ Московский марафон

Москва

21 сентября 2014

Тип забега: шоссе

Место старта: Лужники

Контакты организаторов: info@newrunners.ru
Оргкомитет Московского Марафона. Телефон линии поддержки участников: + 7 (495) 790-32-79 (с 10:00 по 18:00 по рабочим дням)



Дистанции

  
   Всего записей: 5302. Показаны записи с 1 по 100. Страницы:

МестоИмяСтартовый
номер
Город, странаРезультатМесто среди
мужчин/женщин
Группа
(место в ней)
Дата рождения,
возраст
КлубКомментарий
1Rinas Akhmadeev14384КАЗАНЬ, Россия0:29:231 25 лет
2Илдар Миншин15514Калуга, Россия0:29:242 29 лет ШВСМ
3Михаил Максимов10895Чебоксары, Россия0:29:443 28 лет
4Юрий Ковалёв15505Москва, Россия0:29:504 31 год
5Владимир Сафронов15194Москва, Россия0:30:505 27 лет
6Сергей Реунков15195Москва, Россия0:31:036 30 лет
7Андрей Куликов14954Москва, Россия0:32:247 24 года Adidas Boost team
8Алексей Калистратов9358Москва, Россия0:32:278 20 лет GoldNik
9Ирина Сергеева15052Курск, Россия0:33:501 26 лет ШВСМ
10Наталья Попкова15337Москва, Россия0:33:542 26 лет
11Надежда Трилинская9497Москва, Россия0:34:163 35 лет Динамо
12Никита Сусакин15032Подольск, Россия0:34:209 24 года RRUNS
13Алексей Баранников15536Москва, Россия0:34:2110 39 лет PRO TRENER
13Александр Мащенко11727Москва, Россия0:34:2110 28 лет
15Виталий Тихонов9414Москва, Россия0:34:2812 31 год Лично
16Андрей Завитов9381Калуга, Россия0:34:3513 26 лет турбо
17Владислав Парфенов12088Москва, Россия0:34:3914 25 лет МЭИ
18Дмитрий Антонов9203Зеленоград, Россия0:34:4715 32 года IRC
18Максим Батраков15065Москва, Россия0:34:4715 30 лет Школа бега - Runnman.ru
20Иван Аникеев11794ЖУКОВСКИЙ, Россия0:34:5317 32 года Nike+
21Юрий Неманежин14046Москва, Россия0:34:5818 31 год Pro-trener
22Александр Родионов15343Москва, Россия0:35:0819 23 года
23  Алексей Сорокин13575Москва, Россия0:35:1920 25 лет МГУ
24Наталья Соловьева14472Смоленск, Россия0:35:364 31 год
25Юрий Шварц10565Москва, Россия0:35:3921 20 лет MSU Ski Team
26Алексей Терентьев9984Москва, Россия0:35:4122 23 года Факел
27Mauro Moiola12135Москва, Италия0:35:4623 41 год
28Николай Суриков15345Москва, Россия0:36:0724 18 лет
29  Дмитрий Юдин12004Москва, Россия0:36:1325 33 года Beeline
30Кирилл Бутузов15523Железнодорожный, Россия0:36:2226 31 год
30  Григорий Качалов8177Москва, Россия0:36:2226 26 лет Тихоходы
32Алексей Башкирцев10967Пенза, Россия0:36:2828 27 лет
32Алексей Ерошкин14417Москва, Россия0:36:2828 33 года
34Natalya Tarantinova11835Москва, Россия0:36:345 26 лет ЦСП по л/а
35Алексей Виноградов14420Москва, Россия0:36:3830 21 год ДЮСШ СПАРТАК
36Юрий Комлев15607Москва, Россия0:36:3931 47 лет OneWay Russia Team
37Valery Laptsiukhou15335ЖОДИНО, Беларусь0:36:4132 33 года Белаз
38Алексей Жегулев13460Серпухов, Россия0:36:4533 24 года
38Сергей Чечёткин8766Сергиев Посад, Россия0:36:4533 29 лет Динамо отдыхает
40Ясер Ахмед12825Москва, Россия0:36:5135 25 лет
41Александр Жуленков10223Железнодорожный, Россия0:36:5236 43 года
41Михаил Лубенец13522Москва, Россия0:36:5236 39 лет
41Скоков Максим12953Москва, Россия0:36:5236 18 лет ЛАВА
44Adrien Gislain14553Москва, Франция0:36:5739 24 года
45Евгения Кремена11726Москва, Россия0:36:586 25 лет МГУ
46Костя Балалайкин14776Санкт-Петербург, Россия0:36:5940 29 лет Родник
47Евгений Согрин13686ЧЕХОВ, Россия0:37:0441 26 лет СКА
48Андрей Галушко12857Москва, Россия0:37:0642 18 лет ДЮСШ 1
49Александр Батанов15247Москва, Россия0:37:0943 46 лет Динамо
50Walter James Mc Namara15542Нью-Йорк, США0:37:1344 40 лет
51Ivan Suharev14210Москва, Россия0:37:2645 28 лет МГУ-Толстопальцево
52Антон Самохвалов12346Москва, Россия0:37:3346 28 лет Лапоть
53Денис Цегельник10043Ейск, Россия0:37:4147 37 лет
54Анатолий Яшкин12066Москва, Россия0:37:4948 30 лет
55Алексей Быстров15284Москва, Россия0:37:5249 29 лет Факел
55Мария Быстрова15282Москва, Россия0:37:527 24 года Факел
57Andrey Zhukov9980Москва, Россия0:37:5950 25 лет
58Lenar Rakhmanov10139Москва, Россия0:38:0551 29 лет
59Валерка Дёмин13953Москва, Россия0:38:1152 26 лет
60Александр Бойко15344ЖОДИНО, Беларусь0:38:1453 26 лет
61Артур Мовсесян15575Санкт-Петербург, Россия0:38:1954 45 лет КЛБ Факел
62Егор Киселев13877Москва, Россия0:38:2155 16 лет
63Роман Речапов14116Москва, Россия0:38:2456 24 года
64Сергей Новичков14330Москва, Россия0:38:2557 23 года
65Maxim Boyarkin12757Москва, Россия0:38:2958 21 год
66Антон Козлов12903Москва, Россия0:38:3159 28 лет
67Артем Саветников13706Москва, Россия0:38:3560 30 лет
68Michael Kazimierski13960Лондон, Великобритания0:38:3761 44 года Klub Biegacza Goch
69Evgeny Kirichenko8846Москва, Россия0:38:3862 42 года Moskva River Runners
69Леонид Саночкин8687Железнодорожный, Россия0:38:3862 25 лет
71Татьяна Авдеева15407Железногорск, Россия0:38:398 28 лет Меркурий
71Сергей Сусметов14440Чебоксары, Россия0:38:3964 29 лет СДЮСШОР №3
73Евгений Синайский8347Москва, Россия0:38:4165 35 лет
74Иван Мухин12314Санкт-Петербург, Россия0:38:4766 34 года Электросила
75Victor Salinas15560Мурсия, Испания0:38:4867 37 лет innova
76Иван Шеременда14696Москва, Россия0:38:4968 28 лет
77Сергей Мигунов14743Москва, Россия0:38:5369 35 лет МГУ
77Дмитрий Шварц10566Москва, Россия0:38:5369 26 лет
79Fredrik Hjelm15155Москва, Швеция0:39:0371 23 года
80Анастасия Фарниева15293Москва, Россия0:39:049 28 лет
81Наумкин Андрей9443Москва, Россия0:39:0572 38 лет Трилайф
82Максим Сопов8019Москва, Россия0:39:0773 33 года Lefortovo-Yauza
83Николай Бережной12767Москва, Россия0:39:0874 26 лет
84Alexey Svirin12982Москва, Россия0:39:1075 44 года PROTRENER
84Денис Иванов11840Москва, Россия0:39:1075 27 лет TempTraining.ru
84Иван Серебряков8358КИМРЫ, Россия0:39:1075 30 лет 42km.ru / Трилайф
87Юрий Симонов12937Подольск, Россия0:39:1278 23 года Простоквашино-1
88Elena Netuzhilova11968Москва, Россия0:39:1310 23 года
89Виктор Педаев8779Балашиха, Россия0:39:1479 37 лет
90Роман Сазонов9208Москва, Россия0:39:1580 36 лет
91Tatyana Rvacheva11633Москва, Россия0:39:1811 27 лет
92Konstantin Volkov11572Москва, Россия0:39:2081 25 лет
93Кирилл Жуков13313Москва, Россия0:39:2382 24 года
94Артем Украинец9907Москва, Россия0:39:2583 31 год
95  Антон Гержов15271Москва, Россия0:39:2784 20 лет
96Dmitriy Suslov14623Москва, Россия0:39:2885 24 года Sberbank CIB Triathlon Team
96Константин Шамаров8420ПУШКИНО, Россия0:39:2885 39 лет
98Михаил Сапелкин14558Москва, Россия0:39:3287 32 года
99Евгений Жванский11017Москва, Россия0:39:3888 24 года
100Maksim Kozachok13498Москва, Россия0:39:4189 27 лет
Всего записей: 5302. Показаны записи с 1 по 100. Страницы: